Location: Unspecified
(0.0000°N, 0.0000°E)
Time: 00:25:12
(UTC+00:00)

Hubble Space Telescope - Pass Details

Date: 19 February 2019
Orbit: 536 x 540 km, 28.5° (Epoch: 15 July)

Event Time Altitude Azimuth Distance (km) Brightness Sun altitude
Rises 19:05:06 0° 322° (NW) 2,669 4.7 -12.6°
Reaches altitude 10° 19:07:47 10° 339° (NNW) 1,780 3.5 -13.2°
Maximum altitude 19:10:55 21° 29° (NNE) 1,240 2.2 -14.0°
Enters shadow 19:11:47 19° 47° (NE) 1,290 2.2 -14.2°
